User: anonymous   Login
Location: Almena Post Office
(39.8928°N, 99.7066°W)
Time: 06:35:36
(UTC+00:00)
Language:

STARLINK-1178 - Orbit

View from above orbital plane
View from above orbital plane
View from above satellite
View from above satellite

Ground track
Ground track

The orbit data is extracted from the following two-line orbital elements,

1 45063C 20006V   20152.82773751  .00003089  00000-0  21164-3 0  1524
2 45063  52.9995  29.1782 0001538  87.3605 342.2193 15.05570031    16
Epoch (UTC): 31 May 2020 19:51:56
Eccentricity: 0.0001538
inclination: 52.9995°
perigee height: 548 km
apogee height: 551 km
right ascension of ascending node: 29.1782°
argument of perigee: 87.3605°
revolutions per day: 15.05570031
mean anomaly at epoch: 342.2193°
orbit number at epoch: 1

The dashed part of the orbit path shows where the satellite is in the earth's shadow,  

DLR